[[{"header":{"parameterUnit":"m.s-1","parameterCategory":1,"la1":30.2992,"la2":30.254,"lo1":-89.0895,"lo2":-89.0443,"dy":0.0025,"dx":0.0025,"nx":19,"ny":19,"refTime":"2026-03-10T09:00:00:Z","depth":0,"parameterNumber":2,"parameterNumberName":"U-component_of_WINDS"},"data":[0,0,0,-2.7145,-2.7146,-2.7213,-2.7213,-2.7296,-2.7297,0,0,0,0,0,0,0,0,0,0,0,-2.7124,-2.7125,-2.7145,-2.7146,-2.7213,-2.7213,-2.7296,-2.7297,0,0,0,0,0,0,0,0,0,0,0,-2.7124,-2.7125,-2.7126,-2.7147,-2.7213,-2.7213,-2.7295,-2.7246,0,0,0,0,0,0,0,0,0,0,-2.7181,-2.7162,-2.7125,-2.7126,-2.7147,-2.7213,-2.7214,-2.7243,-2.7249,-2.7265,0,-2.7279,0,-2.7289,-2.7302,-2.7302,0,0,0,-2.7146,-2.7158,-2.7176,-2.7126,-2.7148,-2.7213,-2.7183,-2.7247,-2.7253,-2.7272,-2.7281,-2.7284,-2.7291,-2.7302,-2.7303,-2.7395,-2.7395,0,0,-2.7143,-2.7136,-2.7172,-2.718,-2.7171,-2.7181,-2.7185,-2.725,-2.7259,-2.7281,-2.7286,-2.7292,-2.7303,-2.7304,-2.7394,-2.7395,0,0,0,-2.7132,-2.7133,-2.715,-2.7177,-2.7189,-2.7183,-2.7188,-2.7256,-2.7262,-2.7287,-2.7293,-2.7303,-2.7304,-2.7394,-2.7394,-2.7408,0,0,0,-2.713,-2.7127,-2.7149,-2.7145,-2.7188,-2.7224,-2.7192,-2.7258,-2.7265,-2.7293,-2.7304,-2.7305,-2.7393,-2.7394,-2.7407,-2.7415,0,0,0,-2.712,-2.7126,-2.7136,-2.7145,-2.7173,-2.7223,-2.7233,-2.726,-2.7269,-2.7302,-2.7305,-2.7393,-2.7394,-2.7405,-2.7413,-2.7436,0,0,0,-2.7108,-2.7147,-2.7136,-2.7182,-2.7173,-2.7232,-2.7233,-2.7277,-2.7307,-2.7304,-2.7393,-2.7394,-2.7405,-2.7412,-2.7434,-2.7453,-2.746,0,0,-2.7153,-2.7152,-2.718,-2.7172,-2.7231,-2.7222,-2.7283,-2.7316,-2.7326,-2.7371,-2.7373,-2.7407,-2.7413,-2.7435,-2.7507,-2.7513,0,0,0,-2.7192,-2.7212,-2.7229,-2.7257,-2.7285,-2.7308,-2.7333,-2.7346,-2.7384,-2.7348,-2.7423,-2.7426,-2.744,-2.7449,-2.7454,-2.7465,-2.7399,-2.7399,-2.7399,-2.7246,-2.7256,-2.7302,-2.732,-2.7347,-2.7373,-2.7395,-2.7416,-2.7418,-2.7436,-2.7448,-2.7491,-2.7501,-2.7505,-2.7517,-2.7461,-2.7461,-2.7461,-2.7461,-2.7312,-2.734,-2.7343,-2.7388,-2.7398,-2.7435,-2.7461,-2.7461,-2.7496,-2.7482,-2.7495,-2.7477,-2.7511,-2.7522,-2.7462,-2.7462,-2.7461,-2.7461,-2.7461,-2.7347,-2.7362,-2.7377,-2.7418,-2.7449,-2.7466,-2.75,-2.7508,-2.7516,-2.7528,-2.7541,-2.7541,-2.754,-2.7534,-2.7535,-2.7535,-2.7535,-2.7535,-2.7535,-2.7376,-2.7392,-2.742,-2.7452,-2.7471,-2.7497,-2.7523,-2.7541,-2.7563,-2.7566,-2.7566,-2.7565,-2.7514,-2.7499,-2.7537,-2.7537,-2.7537,-2.7536,-2.7536,-2.7436,-2.7424,-2.7467,-2.7486,-2.7523,-2.7552,-2.7563,-2.7599,-2.7615,-2.7631,-2.7628,-2.7589,-2.7588,-2.7585,-2.7572,-2.7627,-2.7627,-2.7627,-2.7627,-2.7464,-2.7465,-2.751,-2.754,-2.7569,-2.7583,-2.7629,-2.765,-2.7668,-2.7679,-2.7672,-2.7658,-2.7654,-2.7655,-2.765,-2.7638,-2.7709,-2.7709,-2.7709,-2.7501,-2.7505,-2.7544,-2.7563,-2.7592,-2.7617,-2.766,-2.7693,-2.7711,-2.7712,-2.7686,-2.7683,-2.766,-2.7652,-2.765,-2.7642,-2.7622,0,0]},{"header":{"parameterUnit":"m.s-1","parameterCategory":1,"la1":30.2992,"la2":30.254,"lo1":-89.0895,"lo2":-89.0443,"dy":0.0025,"dx":0.0025,"nx":19,"ny":19,"refTime":"2026-03-10T09:00:00:Z","depth":0,"parameterNumber":3,"parameterNumberName":"V-component_of_WINDS"},"data":[0,0,0,4.0625,4.0628,4.0784,4.0785,4.0974,4.0976,0,0,0,0,0,0,0,0,0,0,0,4.0571,4.0572,4.0624,4.0628,4.0784,4.0785,4.0974,4.0976,0,0,0,0,0,0,0,0,0,0,0,4.0571,4.0572,4.0573,4.0629,4.0784,4.0785,4.0974,4.086,0,0,0,0,0,0,0,0,0,0,4.071,4.0653,4.0571,4.0573,4.0629,4.0784,4.0785,4.0854,4.0867,4.0899,0,4.0925,0,4.0953,4.0988,4.0988,0,0,0,4.0634,4.0642,4.0691,4.0573,4.0631,4.0783,4.0715,4.0861,4.0875,4.0915,4.0928,4.0935,4.0956,4.0989,4.099,4.1157,4.1158,0,0,4.0625,4.0595,4.0681,4.07,4.0674,4.071,4.072,4.087,4.0882,4.0928,4.094,4.096,4.099,4.0992,4.1157,4.1157,0,0,0,4.0596,4.0589,4.0634,4.0692,4.0721,4.0715,4.0726,4.0875,4.0892,4.0942,4.0962,4.0991,4.0993,4.1156,4.1157,4.1155,0,0,0,4.0591,4.0572,4.063,4.0614,4.0718,4.08,4.0727,4.0882,4.09,4.0961,4.0991,4.0995,4.1156,4.1157,4.1154,4.1159,0,0,0,4.0563,4.0569,4.0589,4.0612,4.0678,4.0798,4.0824,4.0886,4.0912,4.0989,4.0996,4.1155,4.1156,4.1153,4.1158,4.1197,0,0,0,4.0525,4.0584,4.0589,4.0663,4.0676,4.0795,4.0823,4.0913,4.0979,4.0992,4.1156,4.1157,4.1153,4.1157,4.1195,4.1225,4.1234,0,0,4.0583,4.059,4.0636,4.0645,4.0756,4.0774,4.0885,4.0972,4.1007,4.1105,4.111,4.1154,4.1158,4.1196,4.1292,4.1299,0,0,0,4.0645,4.0678,4.0714,4.0775,4.0844,4.0905,4.0979,4.1012,4.1097,4.1051,4.1179,4.1182,4.1206,4.1221,4.1227,4.1251,4.1162,4.1162,4.1162,4.0685,4.0726,4.0807,4.0868,4.0927,4.1005,4.1057,4.1115,4.1138,4.1168,4.1198,4.1251,4.1268,4.1273,4.1297,4.1216,4.1216,4.1216,4.1216,4.0775,4.083,4.0862,4.0951,4.0996,4.1071,4.1149,4.1164,4.1242,4.1231,4.1255,4.1241,4.1279,4.1303,4.1216,4.1216,4.1216,4.1216,4.1216,4.0807,4.0841,4.0881,4.0976,4.1045,4.1105,4.118,4.1217,4.1252,4.1275,4.1312,4.1313,4.1319,4.129,4.129,4.129,4.1291,4.1291,4.1291,4.0825,4.087,4.0928,4.1009,4.1055,4.112,4.12,4.1246,4.1308,4.1329,4.133,4.1352,4.1275,4.1255,4.1294,4.1293,4.1293,4.1293,4.1293,4.0904,4.0893,4.0982,4.1028,4.1128,4.1195,4.1242,4.1335,4.1379,4.1415,4.1433,4.1369,4.1378,4.1374,4.1359,4.1422,4.1422,4.1422,4.1422,4.0932,4.0941,4.1043,4.1115,4.1189,4.1242,4.1344,4.1408,4.1472,4.1503,4.1499,4.1481,4.1475,4.1488,4.1481,4.1468,4.1557,4.1557,4.1557,4.0984,4.1003,4.1082,4.1144,4.1225,4.1295,4.1393,4.1476,4.1546,4.1564,4.1528,4.1522,4.1494,4.1482,4.1499,4.1488,4.1463,0,0]}]]